Regional Weather Roundup
Issued by NWS

Home | Current Version | Previous Version | Graphics & Text | Print | Product List | Glossary On
Versions: 1 2 3 4 5 6 7 8 9 10 11 12 13 14 15 16 17 18 19 20 21 22 23 24 25 26 27 28 29 30 31 32 33 34 35 36 37 38 39 40 41 42 43 44 45 46 47 48 49 50
000
ASUS43 KDTX 311601
RWRMI
MICHIGAN HOURLY REGIONAL WEATHER ROUNDUP
NATIONAL WEATHER SERVICE DETROIT/PONTIAC MI
1200 PM EDT WED AUG 31 2016

NOTE: "FAIR" INDICATES FEW OR NO CLOUDS BELOW 12,000 FEET WITH NO
SIGNIFICANT WEATHER AND/OR OBSTRUCTION TO VISIBILITY.

MIZ047>049-052>055-059>063-066>070-074>076-081>083-311700-
SOUTHEAST LOWER MICHIGAN

CITY           SKY/WX    TMP DP  RH WIND       PRES   REMARKS
ADRIAN         CLOUDY    75  70  84 N10       30.01F
ALMA           CLOUDY    69  61  76 NW8       30.05F
ANN ARBOR      PTSUNNY   78  70  76 CALM      29.99F
BAD AXE        CLOUDY    67  60  78 N9        30.04S
CARO           MOSUNNY   70  63  78 N6        30.03S
DETROIT CITY   CLOUDY    76  70  82 N7        29.99F
DETROIT        PTSUNNY   76  72  87 N6        30.00S
GROSSE ILE     CLOUDY    77  70  77 CALM      29.98S
HILLSDALE      CLOUDY    74  69  85 N3        30.02F
HOWELL         CLOUDY    73  64  75 N6        30.02F

CITY           SKY/WX    TMP DP  RH WIND       PRES   REMARKS
JACKSON        CLOUDY    74  69  85 NE8       30.02F
LAMBERTVILLE   CLOUDY    76  70  80 CALM      30.00S
LANSING        CLOUDY    71  56  58 N8        30.04F
LAPEER         CLOUDY    73  60  63 N5        30.02F
MASON          CLOUDY    70  65  84 N7        30.03S
MONROE         CLOUDY    76  71  86 NW5       29.99S
MT. CLEMENS    PTSUNNY   75  68  78 VRB3      29.97F
PONTIAC        CLOUDY    73  66  78 N8        30.01S
PORT HOPE        N/A     71  63  75 VRB3      30.02R
PORT HURON     PTSUNNY   73  64  73 N5        30.00S
TRI CITIES     PTSUNNY   71  59  65 N9        30.05S
MIDLAND        FAIR      72  58  63 N6        30.04S
TROY           CLOUDY    77  68  74 NW6       30.01F
SAGINAW HB     PTSUNNY   70  59  68 NW6       30.03F
$$
MIZ043>046-050>051-056>058-064>065-071>073-077>080-311700-
SOUTHWEST LOWER MICHIGAN

CITY           SKY/WX    TMP DP  RH WIND       PRES   REMARKS
BATTLE CREEK   PTSUNNY   71  69  93 N10       30.04R
BENTON HARBOR  CLOUDY    78  70  76 VRB7      30.03R
BIG RAPIDS     SUNNY     71  58  61 N9G16     30.06F
COLDWATER      CLOUDY    77  69  75 N5        30.01F
FREMONT        FAIR      71  52  49 N9        30.06F
HOLLAND        PTSUNNY   74  63  68 VRB7      30.05S
GRAND RAPIDS   PTSUNNY   71  56  58 NE7       30.06S
IONIA          CLOUDY    69  55  59 N8        30.04F
KALAMAZOO      PTSUNNY   79  67  66 VRB7      30.02F
LUDINGTON      MOSUNNY   71  57  61 N12       30.08S
MARSHALL       CLOUDY    73  69  87 N3        30.03R
MOUNT PLEASANT SUNNY     73  57  57 N12G17    30.04F
MUSKEGON       MOSUNNY   76  56  49 N9        30.07S
SOUTH HAVEN    MOSUNNY   78  72  82 N7        30.03R
$$
MIZ016>042-311700-
NORTHERN LOWER MICHIGAN

CITY           SKY/WX    TMP DP  RH WIND       PRES   REMARKS
ALPENA         SUNNY     73  52  47 N12       30.06R
BEAVER ISLAND  SUNNY     70  59  68 NW7       30.10S
BELLAIRE       MOSUNNY   71  53  52 NW7       30.08F
CADILLAC       MOSUNNY   68  54  60 N9        30.09S
CHARLEVOIX     SUNNY     69  56  62 N6        30.12S
FRANKFORT      MOSUNNY   71  56  58 N8        30.10S
GAYLORD        SUNNY     70  50  49 VRB5      30.09S
GRAYLING       MOSUNNY   71  53  52 N10       30.09S
HARBOR SPRINGS MOSUNNY   72  55  55 N5        30.08S
HOUGHTON LAKE  PTSUNNY   72  54  53 N12       30.08S
MANISTEE       SUNNY     72  56  57 N9        30.08S
OSCODA         MOSUNNY   71  59  64 N12       30.03S
PELLSTON       MOSUNNY   72  53  51 N9        30.08S
ROGERS CITY    SUNNY     69  57  65 N7        30.07S
TRAVERSE CITY  MOSUNNY   72  55  55 N9G17     30.08R
$$
MIZ007>008-015-311700-
EASTERN UPPER MICHIGAN

CITY           SKY/WX    TMP DP  RH WIND       PRES   REMARKS
KINROSS        MOSUNNY   69  57  65 N14       30.07S
MACKINAC ISLAN SUNNY     70  55  59 NW7       30.07S
NEWBERRY       CLOUDY    68  56  65 N12G18    30.09S
S. S. MARIE    MOSUNNY   70  56  61 NW10      30.06S
MUNISING         N/A     68  58  70 N12       30.12R
$$
MIZ004>006-011>014-085-311700-
CENTRAL UPPER MICHIGAN

CITY           SKY/WX    TMP DP  RH WIND       PRES   REMARKS
MANISTIQUE     CLOUDY    71  55  57 NW9G18    30.10R
ESCANABA       MOSUNNY   72  56  57 NW9       30.11F
MENOMINEE      SUNNY    N/A N/A N/A N3        30.14
SAWYER-GWINN   CLOUDY    66  55  68 N9        30.14S
$$
MIZ001>003-009>011-084-311700-
WESTERN UPPER MICHIGAN

CITY           SKY/WX    TMP DP  RH WIND       PRES   REMARKS
IRON MOUNTAIN  SUNNY     71  52  50 NW13      30.14S
HOUGHTON       CLOUDY    67  54  63 N9        30.16R
COPPER HARBOR    N/A     66  59  78 NE10      30.14R
IRONWOOD       CLOUDY    66  57  72 VRB5      30.21S
$$

ABBREVIATIONS USED IN REMARKS
   TC - TEMPERATURE IN CELSIUS
  WCI - WIND CHILL INDEX
   HX - HEAT INDEX
  VSB - VISIBILITY




USA.gov is the U.S. government's official web portal to all federal, state and local government web resources and services.